User: anonymous
Location: Oshawa
(43.9000°N, 78.8670°W)
Time: 20:08:12
(UTC-04:00)
Language:

Cosmos 1821 Rocket - Orbit

View from above orbital plane
View from above orbital plane
View from above satellite
View from above satellite

Ground track
Ground track

The orbit data is extracted from the following two-line orbital elements,

1 17526U 87017B   14260.79017641  .00000168  00000-0  15559-3 0  1357
2 17526 082.9007 069.9566 0039465 240.9493 244.4026 13.76702788368286
Epoch (UTC): 17 September 2014 18:57:51
Eccentricity: 0.0039465
inclination: 82.9007°
perigee height: 946 km
apogee height: 1004 km
right ascension of ascending node: 69.9566°
argument of perigee: 240.9493°
revolutions per day: 13.76702788
mean anomaly at epoch: 244.4026°
orbit number at epoch: 36828

The dashed part of the orbit path shows where the satellite is in the earth's shadow,  

DLR